This demonstration page uses our WeatherBlox Daily Observations layout. Learn more.

Left ArrowRight Arrow

39.51506, -84.39828

Hourly Observations for February 28, 2016

Temp ( °F °C ) Dew Point ( °F °C ) Humidity (%) Winds ( mph kmh ) Pressure ( in mb ) Visibility ( mi km ) Precip ( " mm )
12:15 am 00:15 Clear 39 4 30 -1 70 70 SSW 6 9 30.00 1016 10 16 0.00 0.00
12:35 am 00:35 Clear 39 4 31 -0.4 73 73 SW 6 9 30.00 1016 10 16 0.00 0.00
12:55 am 00:55 Clear 37 2.9 31 -0.7 77 77 SW 6 9 30.03 1017 10 16 0.00 0.00
1:15 am 01:15 Clear 37 2.6 32 -0.2 82 82 SW 3 6 30.03 1017 10 16 0.00 0.00
1:35 am 01:35 Clear 37 2.6 32 0 83 83 Calm 30.03 1017 10 16 0.00 0.00
1:55 am 01:55 Clear 36 2.1 31 -0.4 84 84 Calm 30.03 1017 10 16 0.00 0.00
2:15 am 02:15 Clear 35 1.9 31 -0.5 84 84 Calm 30.03 1017 10 16 0.00 0.00
2:35 am 02:35 Clear 35 1.7 32 -0.2 87 87 Calm 30.03 1017 10 16 0.00 0.00
2:55 am 02:55 Clear 37 2.6 32 0.1 84 84 Calm 30.03 1017 10 16 0.00 0.00
3:15 am 03:15 Clear 37 2.6 32 0 83 83 Calm 30.00 1016 10 16 0.00 0.00
3:35 am 03:35 Clear 37 2.6 31 -0.5 80 80 W 3 6 30.00 1016 10 16 0.00 0.00
3:55 am 03:55 Clear 37 2.6 31 -0.3 81 81 WSW 3 6 30.00 1016 10 16 0.00 0.00
4:15 am 04:15 Clear 37 2.6 31 -0.5 80 80 W 3 6 30.00 1016 10 16 0.00 0.00
4:35 am 04:35 Clear 39 4 32 0 75 75 WSW 5 7 29.97 1015 10 16 0.00 0.00
4:55 am 04:55 Clear 37 2.8 31 -0.5 79 79 WSW 5 7 30.00 1016 10 16 0.00 0.00
5:15 am 05:15 Clear 39 4 32 0 75 75 WSW 5 7 29.97 1015 10 16 0.00 0.00
5:35 am 05:35 Clear 39 4 32 -0.1 75 75 WSW 3 6 29.97 1015 10 16 0.00 0.00
5:55 am 05:55 Clear 39 4 32 0 75 75 WSW 6 9 29.97 1015 10 16 0.00 0.00
6:15 am 06:15 Clear 37 2.6 31 -0.6 80 80 WSW 6 9 30.00 1016 10 16 0.00 0.00
6:35 am 06:35 Clear 39 4 32 0 75 75 W 5 7 29.97 1015 10 16 0.00 0.00
6:55 am 06:55 Clear 39 4 32 0 75 75 WSW 5 7 29.97 1015 10 16 0.00 0.00
7:15 am 07:15 Sunny 39 4 32 0.2 77 77 WSW 3 6 29.97 1015 10 16 0.00 0.00
7:35 am 07:35 Sunny 39 4 32 0.2 77 77 WSW 5 7 29.97 1015 10 16 0.00 0.00
7:55 am 07:55 Sunny 39 4 32 0 75 75 S 6 9 29.94 1014 10 16 0.00 0.00
8:15 am 08:15 Sunny 44 6.7 34 0.9 67 67 SSW 7 11 29.94 1014 10 16 0.00 0.00
8:35 am 08:35 Sunny 48 9.1 36 2.3 63 63 SSW 10 17 29.94 1014 10 16 0.00 0.00
8:55 am 08:55 Sunny 49 9.6 36 2.1 60 60 SSW 9 15 29.94 1014 10 16 0.00 0.00
9:15 am 09:15 Sunny 52 11 36 2 54 54 SSW 13 20 29.94 1014 10 16 0.00 0.00
9:35 am 09:35 Sunny 55 12.5 35 1.9 49 49 SSW 18 30 29.91 1013 10 16 0.00 0.00
9:55 am 09:55 Sunny 55 12.5 34 1.1 46 46 SW 18 30 29.91 1013 10 16 0.00 0.00
10:15 am 10:15 Sunny 56 13.5 35 1.5 44 44 SW 20 31 29.91 1013 10 16 0.00 0.00
10:35 am 10:35 Sunny 57 13.8 34 0.9 42 42 SW 21 33 29.91 1013 10 16 0.00 0.00
10:55 am 10:55 Sunny 59 15.1 34 1.2 39 39 SW 22 35 29.88 1012 10 16 0.00 0.00
11:15 am 11:15 Sunny 60 15.3 34 0.9 38 38 SW 15 24 29.85 1011 10 16 0.00 0.00
11:35 am 11:35 Sunny 61 16 33 0.7 36 36 SW 20 31 29.85 1011 10 16 0.00 0.00
11:55 am 11:55 Sunny 62 16.5 34 0.9 35 35 SSW 22 35 29.85 1011 10 16 0.00 0.00
12:15 pm 12:15 Sunny 62 16.9 33 0.7 34 34 SW 21 33 29.85 1011 10 16 0.00 0.00
12:35 pm 12:35 Sunny 64 18 33 0.8 32 32 SW 20 31 29.83 1010 10 16 0.00 0.00
12:55 pm 12:55 Sunny 64 18 32 0.1 30 30 SSW 25 41 29.83 1010 10 16 0.00 0.00
1:15 pm 13:15 Sunny 67 19.5 33 0.5 28 28 SW 29 46 29.80 1009 10 16 0.00 0.00
1:35 pm 13:35 Sunny 67 19.5 33 0.6 28 28 SW 29 46 29.80 1009 10 16 0.00 0.00
1:55 pm 13:55 Sunny 67 19.6 32 -0.2 27 27 SW 23 37 29.80 1009 10 16 0.00 0.00
2:15 pm 14:15 Sunny 67 19.5 31 -0.6 26 26 SW 29 46 29.77 1008 10 16 0.00 0.00
2:35 pm 14:35 Sunny 69 20.3 32 -0.1 26 26 SW 25 41 29.77 1008 10 16 0.00 0.00
2:55 pm 14:55 Sunny 69 20.8 32 -0.1 25 25 SW 25 41 29.74 1007 10 16 0.00 0.00
3:15 pm 15:15 Sunny 69 20.8 32 -0.2 25 25 SW 26 43 29.74 1007 10 16 0.00 0.00
3:35 pm 15:35 Sunny 69 20.8 32 0 25 25 SSW 25 41 29.71 1006 10 16 0.00 0.00
3:55 pm 15:55 Sunny 69 20.8 31 -0.8 24 24 SSW 23 37 29.71 1006 10 16 0.00 0.00
4:15 pm 16:15 Sunny 69 20.8 31 -0.6 24 24 SSW 20 31 29.71 1006 10 16 0.00 0.00
4:35 pm 16:35 Sunny 69 20.8 31 -0.7 24 24 SW 24 39 29.71 1006 10 16 0.00 0.00
4:55 pm 16:55 Sunny 69 20.8 30 -1 23 23 SSW 24 39 29.71 1006 10 16 0.00 0.00
5:15 pm 17:15 Sunny 68 19.9 29 -1.5 24 24 SSW 26 43 29.68 1005 10 16 0.00 0.00
5:35 pm 17:35 Sunny 67 19.5 30 -1.2 25 25 SSW 24 39 29.68 1005 10 16 0.00 0.00
5:55 pm 17:55 Sunny 64 18 28 -2.2 25 25 SSW 21 33 29.68 1005 10 16 0.00 0.00
6:15 pm 18:15 Sunny 63 17 29 -1.5 28 28 SSW 20 31 29.68 1005 10 16 0.00 0.00
6:35 pm 18:35 Clear 62 16.7 29 -1.7 29 29 SSW 20 31 29.68 1005 10 16 0.00 0.00
6:55 pm 18:55 Clear 62 16.6 29 -1.6 29 29 SW 17 28 29.68 1005 10 16 0.00 0.00
7:15 pm 19:15 Clear 62 16.6 29 -1.6 29 29 SW 17 28 29.68 1005 10 16 0.00 0.00
7:35 pm 19:35 Partly Cloudy 62 16.6 28 -2.1 28 28 SSW 15 24 29.71 1006 10 16 0.00 0.00
7:55 pm 19:55 Mostly Cloudy 61 16.1 28 -2 29 29 SSW 16 26 29.68 1005 10 16 0.00 0.00
8:15 pm 20:15 Cloudy 62 16.6 28 -2 28 28 SSW 17 28 29.68 1005 10 16 0.00 0.00
8:35 pm 20:35 Cloudy 62 16.5 28 -2.1 28 28 SSW 17 28 29.68 1005 10 16 0.00 0.00
8:55 pm 20:55 Cloudy 62 16.6 27 -2.6 27 27 SSW 20 31 29.68 1005 10 16 0.00 0.00
9:15 pm 21:15 Cloudy 62 16.5 27 -2.6 27 27 SW 16 26 29.65 1004 10 16 0.00 0.00
9:35 pm 21:35 Cloudy 61 16.2 28 -2.5 28 28 SSW 17 28 29.65 1004 10 16 0.00 0.00
9:55 pm 21:55 Cloudy with Drizzle 61 16 29 -1.9 29 29 SW 21 33 29.65 1004 10 16 0.00 0.00
10:15 pm 22:15 Cloudy 61 16 29 -1.9 29 29 SW 16 26 29.65 1004 10 16 0.00 0.00
10:35 pm 22:35 Cloudy with Light Rain 61 16 30 -1 31 31 SW 17 28 29.65 1004 10 16 0.00 0.00
10:55 pm 22:55 Cloudy with Drizzle 60 15.4 36 2 41 41 WSW 23 37 29.65 1004 10 16 0.00 0.00
11:15 pm 23:15 Cloudy 60 15.3 37 2.9 44 44 SW 23 37 29.65 1004 10 16 0.00 0.00
11:35 pm 23:35 Cloudy with Rain 58 14.3 40 4.7 53 53 SW 16 26 29.65 1004 10 16 0.00 0.00
11:55 pm 23:55 Cloudy 60 15.3 40 4.7 49 49 SW 17 28 29.62 1003 10 16 0.00 0.00

Powered by AerisWeather